Time,TemperatureF,DewpointF,PressureIn,WindDirection,WindDirectionDegrees,WindSpeedMPH,WindSpeedGustMPH,Humidity,HourlyPrecipIn,Conditions,Clouds,dailyrainin,SoftwareType,DateUTC
2013-06-26 00:00:00,68.1,65.1,29.90,NW,316,0.0,0.0,90,0.00,,SKC,0.00,VWS V13.01,2013-06-26 04:00:00,
2013-06-26 00:01:00,68.1,65.1,29.90,NW,316,0.0,0.0,90,0.00,,SKC,0.00,VWS V13.01,2013-06-26 04:01:00,
2013-06-26 00:06:00,68.0,65.0,29.89,NW,316,0.0,0.0,90,0.00,,SKC,0.00,VWS V13.01,2013-06-26 04:06:00,
2013-06-26 00:11:00,67.8,65.1,29.90,NW,316,0.0,0.0,91,0.00,,SKC,0.00,VWS V13.01,2013-06-26 04:11:00,
2013-06-26 00:16:00,67.8,65.1,29.90,NW,316,0.0,0.0,91,0.00,,SKC,0.00,VWS V13.01,2013-06-26 04:16:00,
2013-06-26 00:21:00,67.8,65.1,29.90,NW,316,0.0,0.0,91,0.00,,SKC,0.00,VWS V13.01,2013-06-26 04:21:00,
2013-06-26 00:26:00,67.8,65.1,29.90,NW,316,0.0,0.0,91,0.00,,SKC,0.00,VWS V13.01,2013-06-26 04:26:00,
2013-06-26 00:31:00,67.8,65.1,29.90,NW,316,0.0,0.0,91,0.00,,SKC,0.00,VWS V13.01,2013-06-26 04:31:00,
2013-06-26 00:36:00,67.8,65.1,29.90,NW,316,0.0,0.0,91,0.00,,SKC,0.00,VWS V13.01,2013-06-26 04:36:00,
2013-06-26 00:41:00,67.8,65.1,29.89,NW,316,0.0,0.0,91,0.00,,SKC,0.00,VWS V13.01,2013-06-26 04:41:00,
2013-06-26 00:46:00,67.8,65.1,29.89,NW,316,0.0,0.0,91,0.00,,SKC,0.00,VWS V13.01,2013-06-26 04:46:00,
2013-06-26 00:51:00,68.0,65.3,29.89,NW,316,0.0,0.0,91,0.00,,SKC,0.00,VWS V13.01,2013-06-26 04:51:00,
2013-06-26 00:56:00,67.8,65.1,29.90,NW,316,0.0,0.0,91,0.00,,SKC,0.00,VWS V13.01,2013-06-26 04:56:00,
2013-06-26 01:01:00,67.8,65.1,29.89,NW,316,0.0,0.0,91,0.00,,SKC,0.00,VWS V13.01,2013-06-26 05:01:00,
2013-06-26 01:06:00,67.8,65.1,29.89,NW,316,0.0,0.0,91,0.00,,SKC,0.00,VWS V13.01,2013-06-26 05:06:00,
2013-06-26 01:11:00,67.8,65.1,29.89,NW,316,0.0,0.0,91,0.00,,SKC,0.00,VWS V13.01,2013-06-26 05:11:00,
2013-06-26 01:16:00,67.8,65.1,29.89,NW,316,0.0,0.0,91,0.00,,SKC,0.00,VWS V13.01,2013-06-26 05:16:00,
2013-06-26 01:21:00,67.8,65.1,29.89,NW,316,0.0,0.0,91,0.00,,SKC,0.00,VWS V13.01,2013-06-26 05:21:00,
2013-06-26 01:26:00,67.8,65.1,29.89,NW,316,0.0,0.0,91,0.00,,SKC,0.00,VWS V13.01,2013-06-26 05:26:00,
2013-06-26 01:31:00,67.8,65.1,29.89,NW,316,0.0,0.0,91,0.00,,SKC,0.00,VWS V13.01,2013-06-26 05:31:00,
2013-06-26 01:36:00,67.8,65.1,29.89,NW,316,0.0,0.0,91,0.00,,SKC,0.00,VWS V13.01,2013-06-26 05:36:00,
2013-06-26 01:41:00,67.8,65.1,29.89,NW,316,0.0,0.0,91,0.00,,SKC,0.00,VWS V13.01,2013-06-26 05:41:00,
2013-06-26 01:46:00,67.8,65.1,29.88,NW,316,0.0,0.0,91,0.00,,SKC,0.00,VWS V13.01,2013-06-26 05:46:00,
2013-06-26 01:51:00,67.8,65.1,29.89,NW,316,0.0,0.0,91,0.00,,SKC,0.00,VWS V13.01,2013-06-26 05:51:00,
2013-06-26 01:56:00,68.0,65.6,29.88,NW,316,0.0,0.0,92,0.00,,SKC,0.00,VWS V13.01,2013-06-26 05:56:00,
2013-06-26 02:01:00,68.1,65.7,29.88,NW,316,0.0,0.0,92,0.00,,SKC,0.00,VWS V13.01,2013-06-26 06:01:00,
2013-06-26 02:06:00,68.1,65.7,29.89,NW,316,0.0,0.0,92,0.00,,SKC,0.00,VWS V13.01,2013-06-26 06:06:00,
2013-06-26 02:11:00,68.1,65.7,29.89,NW,316,0.0,0.0,92,0.00,,SKC,0.00,VWS V13.01,2013-06-26 06:11:00,
2013-06-26 02:16:00,67.8,65.1,29.88,NW,316,0.0,0.0,91,0.00,,SKC,0.00,VWS V13.01,2013-06-26 06:16:00,
2013-06-26 02:21:00,67.8,65.1,29.89,NW,316,0.0,0.0,91,0.00,,SKC,0.00,VWS V13.01,2013-06-26 06:21:00,
2013-06-26 02:26:00,67.8,65.1,29.89,NW,316,0.0,0.0,91,0.00,,SKC,0.00,VWS V13.01,2013-06-26 06:26:00,
2013-06-26 02:31:00,67.8,65.1,29.89,NW,316,0.0,0.0,91,0.00,,SKC,0.00,VWS V13.01,2013-06-26 06:31:00,
2013-06-26 02:36:00,67.8,65.1,29.89,NW,316,0.0,0.0,91,0.00,,SKC,0.00,VWS V13.01,2013-06-26 06:36:00,
2013-06-26 02:41:00,67.8,65.1,29.89,NW,316,0.0,0.0,91,0.00,,SKC,0.00,VWS V13.01,2013-06-26 06:41:00,
2013-06-26 02:46:00,67.8,65.1,29.89,NW,316,0.0,0.0,91,0.00,,SKC,0.00,VWS V13.01,2013-06-26 06:46:00,
2013-06-26 02:51:00,67.6,64.9,29.88,NW,316,0.0,0.0,91,0.00,,SKC,0.00,VWS V13.01,2013-06-26 06:51:00,
2013-06-26 02:56:00,67.6,64.9,29.88,NW,316,0.0,0.0,91,0.00,,SKC,0.00,VWS V13.01,2013-06-26 06:56:00,
2013-06-26 03:01:00,67.6,64.9,29.89,NW,316,0.0,0.0,91,0.00,,SKC,0.00,VWS V13.01,2013-06-26 07:01:00,
2013-06-26 03:06:00,67.6,64.9,29.89,NW,316,0.0,0.0,91,0.00,,SKC,0.00,VWS V13.01,2013-06-26 07:06:00,
2013-06-26 03:11:00,67.6,64.9,29.89,NW,316,0.0,0.0,91,0.00,,SKC,0.00,VWS V13.01,2013-06-26 07:11:00,
2013-06-26 03:16:00,67.2,64.5,29.89,NW,316,0.0,0.0,91,0.00,,SKC,0.00,VWS V13.01,2013-06-26 07:16:00,
2013-06-26 03:21:00,67.2,64.8,29.88,NW,316,0.0,0.0,92,0.00,,SKC,0.00,VWS V13.01,2013-06-26 07:21:00,
2013-06-26 03:26:00,67.2,64.8,29.88,NW,316,0.0,0.0,92,0.00,,SKC,0.00,VWS V13.01,2013-06-26 07:26:00,
2013-06-26 03:32:00,67.1,64.4,29.88,NW,316,0.0,0.0,91,0.00,,SKC,0.00,VWS V13.01,2013-06-26 07:32:00,
2013-06-26 03:36:00,67.1,64.7,29.88,NW,316,0.0,0.0,92,0.00,,SKC,0.00,VWS V13.01,2013-06-26 07:36:00,
2013-06-26 03:41:00,67.1,64.7,29.89,NW,316,0.0,0.0,92,0.00,,SKC,0.00,VWS V13.01,2013-06-26 07:41:00,
2013-06-26 03:47:00,67.1,64.7,29.89,NW,316,0.0,0.0,92,0.00,,SKC,0.00,VWS V13.01,2013-06-26 07:47:00,
2013-06-26 03:52:00,66.9,64.5,29.89,NW,316,0.0,0.0,92,0.00,,SKC,0.00,VWS V13.01,2013-06-26 07:52:00,
2013-06-26 03:57:00,66.9,64.5,29.89,NW,316,0.0,0.0,92,0.00,,SKC,0.00,VWS V13.01,2013-06-26 07:57:00,
2013-06-26 04:02:00,67.1,64.7,29.89,NW,316,0.0,0.0,92,0.00,,SKC,0.00,VWS V13.01,2013-06-26 08:02:00,
2013-06-26 04:07:00,67.1,64.7,29.89,NW,316,0.0,0.0,92,0.00,,SKC,0.00,VWS V13.01,2013-06-26 08:07:00,
2013-06-26 04:12:00,67.1,64.7,29.89,NW,316,0.0,0.0,92,0.00,,SKC,0.00,VWS V13.01,2013-06-26 08:12:00,
2013-06-26 04:17:00,67.1,64.7,29.89,NW,316,0.0,0.0,92,0.00,,SKC,0.00,VWS V13.01,2013-06-26 08:17:00,
2013-06-26 04:22:00,67.1,64.7,29.88,NW,316,0.0,0.0,92,0.00,,SKC,0.00,VWS V13.01,2013-06-26 08:22:00,
2013-06-26 04:27:00,67.1,64.7,29.88,NW,316,0.0,0.0,92,0.00,,SKC,0.00,VWS V13.01,2013-06-26 08:27:00,
2013-06-26 04:32:00,66.9,64.5,29.89,NW,316,0.0,0.0,92,0.00,,SKC,0.00,VWS V13.01,2013-06-26 08:32:00,
2013-06-26 04:37:00,66.9,64.5,29.88,NW,316,0.0,0.0,92,0.00,,SKC,0.00,VWS V13.01,2013-06-26 08:37:00,
2013-06-26 04:42:00,66.9,64.5,29.89,NW,316,0.0,0.0,92,0.00,,SKC,0.00,VWS V13.01,2013-06-26 08:42:00,
2013-06-26 04:47:00,66.9,64.5,29.89,NW,316,0.0,0.0,92,0.00,,SKC,0.00,VWS V13.01,2013-06-26 08:47:00,
2013-06-26 04:52:00,66.7,64.3,29.89,NW,316,0.0,0.0,92,0.00,,SKC,0.00,VWS V13.01,2013-06-26 08:52:00,
2013-06-26 04:57:00,66.7,64.3,29.89,NW,316,0.0,0.0,92,0.00,,SKC,0.00,VWS V13.01,2013-06-26 08:57:00,
2013-06-26 05:02:00,66.7,64.3,29.90,NW,316,0.0,0.0,92,0.00,,SKC,0.00,VWS V13.01,2013-06-26 09:02:00,
2013-06-26 05:07:00,66.7,64.3,29.90,NW,316,0.0,0.0,92,0.00,,SKC,0.00,VWS V13.01,2013-06-26 09:07:00,
2013-06-26 05:12:00,66.7,64.3,29.89,NW,316,0.0,0.0,92,0.00,,SKC,0.00,VWS V13.01,2013-06-26 09:12:00,
2013-06-26 05:17:00,66.9,64.5,29.90,NW,316,0.0,0.0,92,0.00,,SKC,0.00,VWS V13.01,2013-06-26 09:17:00,
2013-06-26 05:22:00,66.9,64.5,29.90,NW,316,0.0,0.0,92,0.00,,SKC,0.00,VWS V13.01,2013-06-26 09:22:00,
2013-06-26 05:27:00,66.9,64.5,29.90,NW,316,0.0,0.0,92,0.00,,SKC,0.00,VWS V13.01,2013-06-26 09:27:00,
2013-06-26 05:32:00,67.1,64.7,29.90,NW,316,0.0,0.0,92,0.00,,SKC,0.00,VWS V13.01,2013-06-26 09:32:00,
2013-06-26 05:37:00,67.2,64.8,29.89,NW,316,0.0,0.0,92,0.00,,SKC,0.00,VWS V13.01,2013-06-26 09:37:00,
2013-06-26 05:42:00,67.2,64.8,29.89,NW,316,0.0,0.0,92,0.00,,SKC,0.00,VWS V13.01,2013-06-26 09:42:00,
2013-06-26 05:47:00,67.2,64.8,29.89,NW,316,0.0,0.0,92,0.00,,SKC,0.00,VWS V13.01,2013-06-26 09:47:00,
2013-06-26 05:52:00,67.2,64.8,29.89,NW,316,0.0,0.0,92,0.00,,SKC,0.00,VWS V13.01,2013-06-26 09:52:00,
2013-06-26 05:57:00,67.2,64.8,29.88,NW,316,0.0,0.0,92,0.00,,SKC,0.00,VWS V13.01,2013-06-26 09:57:00,
2013-06-26 06:02:00,67.2,64.8,29.89,NW,316,0.0,0.0,92,0.00,,SKC,0.00,VWS V13.01,2013-06-26 10:02:00,
2013-06-26 06:07:00,67.4,65.0,29.89,NW,316,0.0,0.0,92,0.00,,SKC,0.00,VWS V13.01,2013-06-26 10:07:00,
2013-06-26 06:12:00,67.6,65.2,29.89,NW,316,0.0,0.0,92,0.00,,SKC,0.00,VWS V13.01,2013-06-26 10:12:00,
2013-06-26 06:17:00,67.6,65.2,29.89,NW,316,0.0,0.0,92,0.00,,SKC,0.00,VWS V13.01,2013-06-26 10:17:00,
2013-06-26 06:22:00,67.6,65.2,29.89,NW,316,0.0,0.0,92,0.00,,SKC,0.00,VWS V13.01,2013-06-26 10:22:00,
2013-06-26 06:27:00,67.8,65.4,29.90,NW,316,0.0,0.0,92,0.00,,SKC,0.00,VWS V13.01,2013-06-26 10:27:00,
2013-06-26 06:32:00,67.8,65.4,29.90,NW,316,0.0,0.0,92,0.00,,SKC,0.00,VWS V13.01,2013-06-26 10:32:00,
2013-06-26 06:37:00,68.1,65.7,29.90,NW,316,0.0,0.0,92,0.00,,SKC,0.00,VWS V13.01,2013-06-26 10:37:00,
2013-06-26 06:42:00,68.3,65.9,29.90,NW,316,0.0,0.0,92,0.00,,SKC,0.00,VWS V13.01,2013-06-26 10:42:00,
2013-06-26 06:47:00,68.5,66.1,29.90,NW,316,0.0,0.0,92,0.00,,SKC,0.00,VWS V13.01,2013-06-26 10:47:00,
2013-06-26 06:52:00,68.5,66.1,29.90,NW,316,0.0,0.0,92,0.00,,SKC,0.00,VWS V13.01,2013-06-26 10:52:00,
2013-06-26 06:57:00,68.7,66.3,29.90,NW,316,0.0,0.0,92,0.00,,SKC,0.00,VWS V13.01,2013-06-26 10:57:00,
2013-06-26 07:02:00,68.9,66.5,29.91,South,181,0.0,0.0,92,0.00,,SKC,0.00,VWS V13.01,2013-06-26 11:02:00,
2013-06-26 07:07:00,69.0,66.6,29.91,South,181,0.0,0.0,92,0.00,,SKC,0.00,VWS V13.01,2013-06-26 11:07:00,
2013-06-26 07:12:00,69.0,66.6,29.90,South,181,0.0,0.0,92,0.00,,SKC,0.00,VWS V13.01,2013-06-26 11:12:00,
2013-06-26 07:17:00,69.2,66.8,29.90,South,181,0.0,0.0,92,0.00,,SKC,0.00,VWS V13.01,2013-06-26 11:17:00,
2013-06-26 07:22:00,69.0,66.6,29.90,South,181,0.0,0.0,92,0.00,,SKC,0.00,VWS V13.01,2013-06-26 11:22:00,
2013-06-26 07:27:00,69.2,66.8,29.91,South,181,0.0,0.0,92,0.00,,SKC,0.00,VWS V13.01,2013-06-26 11:27:00,
2013-06-26 07:32:00,69.0,66.6,29.91,South,181,0.0,0.0,92,0.00,,SKC,0.00,VWS V13.01,2013-06-26 11:32:00,
2013-06-26 07:37:00,69.0,66.6,29.91,South,181,0.0,0.0,92,0.00,,SKC,0.00,VWS V13.01,2013-06-26 11:37:00,
2013-06-26 07:42:00,69.0,66.6,29.92,South,181,0.0,0.0,92,0.00,,SKC,0.00,VWS V13.01,2013-06-26 11:42:00,
2013-06-26 07:47:00,69.2,66.8,29.92,South,181,0.0,0.0,92,0.00,,SKC,0.00,VWS V13.01,2013-06-26 11:47:00,
2013-06-26 07:52:00,69.2,66.8,29.92,South,181,0.0,0.0,92,0.00,,SKC,0.00,VWS V13.01,2013-06-26 11:52:00,
2013-06-26 07:57:00,69.4,67.0,29.92,South,181,0.0,0.0,92,0.00,,SKC,0.00,VWS V13.01,2013-06-26 11:57:00,
2013-06-26 08:02:00,69.4,67.0,29.92,South,181,0.0,0.0,92,0.00,,SKC,0.00,VWS V13.01,2013-06-26 12:02:00,
2013-06-26 08:07:00,69.6,67.2,29.92,South,181,0.0,0.0,92,0.00,,SKC,0.00,VWS V13.01,2013-06-26 12:07:00,
2013-06-26 08:12:00,69.8,67.4,29.92,SSE,158,0.0,0.0,92,0.00,,SKC,0.00,VWS V13.01,2013-06-26 12:12:00,
2013-06-26 08:17:00,70.1,67.7,29.92,SE,136,0.0,0.0,92,0.00,,SKC,0.00,VWS V13.01,2013-06-26 12:17:00,
2013-06-26 08:22:00,70.5,68.1,29.92,SSE,158,0.0,0.0,92,0.00,,SKC,0.00,VWS V13.01,2013-06-26 12:22:00,
2013-06-26 08:27:00,70.8,68.4,29.92,SSE,158,0.0,0.0,92,0.00,,SKC,0.00,VWS V13.01,2013-06-26 12:27:00,
2013-06-26 08:32:00,71.2,68.8,29.92,SSE,158,0.0,0.0,92,0.00,,SKC,0.00,VWS V13.01,2013-06-26 12:32:00,
2013-06-26 08:37:00,71.2,68.8,29.92,SSE,158,0.0,0.0,92,0.00,,SKC,0.00,VWS V13.01,2013-06-26 12:37:00,
2013-06-26 08:42:00,71.2,68.8,29.92,SSW,204,0.0,0.0,92,0.00,,SKC,0.00,VWS V13.01,2013-06-26 12:42:00,
2013-06-26 08:47:00,71.2,68.8,29.92,SSW,204,0.0,0.0,92,0.00,,SKC,0.00,VWS V13.01,2013-06-26 12:47:00,
2013-06-26 08:52:00,71.2,68.4,29.92,SW,226,0.0,0.0,91,0.00,,SKC,0.00,VWS V13.01,2013-06-26 12:52:00,
2013-06-26 08:57:00,71.2,68.4,29.92,SW,226,0.0,0.0,91,0.00,,SKC,0.00,VWS V13.01,2013-06-26 12:57:00,
2013-06-26 09:02:00,71.2,68.4,29.92,SW,226,0.0,0.0,91,0.00,,SKC,0.00,VWS V13.01,2013-06-26 13:02:00,
2013-06-26 09:07:00,71.4,68.6,29.92,SW,226,0.0,0.0,91,0.00,,SKC,0.00,VWS V13.01,2013-06-26 13:07:00,
2013-06-26 09:12:00,71.4,68.6,29.92,SW,226,0.0,0.0,91,0.00,,SKC,0.00,VWS V13.01,2013-06-26 13:12:00,
2013-06-26 09:17:00,71.4,68.6,29.92,SW,226,0.0,0.0,91,0.00,,SKC,0.00,VWS V13.01,2013-06-26 13:17:00,
2013-06-26 09:22:00,71.4,68.6,29.92,SW,226,0.0,0.0,91,0.00,,SKC,0.00,VWS V13.01,2013-06-26 13:22:00,
2013-06-26 09:27:00,71.6,68.8,29.91,SW,226,0.0,0.0,91,0.00,,SKC,0.00,VWS V13.01,2013-06-26 13:27:00,
2013-06-26 09:32:00,71.7,68.9,29.91,SW,226,0.0,0.0,91,0.00,,SKC,0.00,VWS V13.01,2013-06-26 13:32:00,
2013-06-26 09:37:00,71.9,69.1,29.92,SW,226,0.0,0.0,91,0.00,,SKC,0.00,VWS V13.01,2013-06-26 13:37:00,
2013-06-26 09:42:00,72.1,69.3,29.92,SW,226,0.0,0.0,91,0.00,,SKC,0.00,VWS V13.01,2013-06-26 13:42:00,
2013-06-26 09:47:00,72.1,69.3,29.92,SW,226,0.0,0.0,91,0.00,,SKC,0.00,VWS V13.01,2013-06-26 13:47:00,
2013-06-26 09:52:00,72.3,69.5,29.92,SW,226,0.0,0.0,91,0.00,,SKC,0.00,VWS V13.01,2013-06-26 13:52:00,
2013-06-26 09:57:00,72.3,69.5,29.92,SW,226,0.0,0.0,91,0.00,,SKC,0.00,VWS V13.01,2013-06-26 13:57:00,
2013-06-26 10:02:00,72.5,69.7,29.92,SW,226,0.0,0.0,91,0.00,,SKC,0.00,VWS V13.01,2013-06-26 14:02:00,
2013-06-26 10:08:00,72.5,69.7,29.92,SW,226,0.0,0.0,91,0.00,,SKC,0.00,VWS V13.01,2013-06-26 14:08:00,
2013-06-26 10:13:00,72.5,69.7,29.91,SW,226,0.0,0.0,91,0.00,,SKC,0.00,VWS V13.01,2013-06-26 14:13:00,
2013-06-26 10:18:00,72.6,69.8,29.91,SW,226,0.0,0.0,91,0.00,,SKC,0.00,VWS V13.01,2013-06-26 14:18:00,
2013-06-26 10:23:00,72.6,69.5,29.92,SW,226,0.0,0.0,90,0.00,,SKC,0.00,VWS V13.01,2013-06-26 14:23:00,
2013-06-26 10:28:00,73.0,70.2,29.92,SW,226,0.0,0.0,91,0.00,,SKC,0.00,VWS V13.01,2013-06-26 14:28:00,
2013-06-26 10:33:00,73.0,69.9,29.92,SW,226,0.0,0.0,90,0.00,,SKC,0.00,VWS V13.01,2013-06-26 14:33:00,
2013-06-26 10:38:00,73.0,69.9,29.92,SW,226,0.0,0.0,90,0.00,,SKC,0.00,VWS V13.01,2013-06-26 14:38:00,
2013-06-26 10:43:00,73.0,69.9,29.93,SW,226,0.0,0.0,90,0.00,,SKC,0.00,VWS V13.01,2013-06-26 14:43:00,
2013-06-26 10:48:00,73.2,70.1,29.93,WSW,248,0.0,0.0,90,0.00,,SKC,0.00,VWS V13.01,2013-06-26 14:48:00,
2013-06-26 10:53:00,73.2,70.1,29.93,WSW,248,0.0,0.0,90,0.00,,SKC,0.00,VWS V13.01,2013-06-26 14:53:00,
2013-06-26 10:58:00,73.4,70.3,29.93,WSW,248,0.0,0.0,90,0.00,,SKC,0.00,VWS V13.01,2013-06-26 14:58:00,
2013-06-26 11:03:00,73.5,70.4,29.93,WSW,248,0.0,0.0,90,0.00,,SKC,0.00,VWS V13.01,2013-06-26 15:03:00,
2013-06-26 11:08:00,73.5,70.4,29.93,WSW,248,0.0,0.0,90,0.02,,SKC,0.02,VWS V13.01,2013-06-26 15:08:00,
2013-06-26 11:13:00,73.7,70.6,29.93,WSW,248,0.0,0.0,90,0.02,,SKC,0.02,VWS V13.01,2013-06-26 15:13:00,
2013-06-26 11:18:00,73.9,70.8,29.93,WSW,248,0.0,0.0,90,0.02,,SKC,0.02,VWS V13.01,2013-06-26 15:18:00,
2013-06-26 11:23:00,73.9,70.8,29.93,WSW,248,0.0,0.0,90,0.02,,SKC,0.02,VWS V13.01,2013-06-26 15:23:00,
2013-06-26 11:28:00,74.1,71.0,29.93,WSW,248,0.0,0.0,90,0.02,,SKC,0.02,VWS V13.01,2013-06-26 15:28:00,
2013-06-26 11:33:00,74.4,71.3,29.93,WSW,248,0.0,0.0,90,0.02,,SKC,0.02,VWS V13.01,2013-06-26 15:33:00,
2013-06-26 11:38:00,74.6,71.2,29.93,ESE,114,0.0,0.0,89,0.02,,SKC,0.02,VWS V13.01,2013-06-26 15:38:00,
2013-06-26 11:43:00,74.8,71.3,29.93,SSE,158,0.0,0.0,89,0.02,,SKC,0.02,VWS V13.01,2013-06-26 15:43:00,
2013-06-26 11:48:00,75.0,71.5,29.93,SSE,158,0.0,0.0,89,0.02,,SKC,0.02,VWS V13.01,2013-06-26 15:48:00,
2013-06-26 11:53:00,75.2,71.7,29.93,SSE,158,0.0,0.0,89,0.02,,SKC,0.02,VWS V13.01,2013-06-26 15:53:00,
2013-06-26 11:58:00,75.3,71.8,29.93,South,181,0.0,0.0,89,0.02,,SKC,0.02,VWS V13.01,2013-06-26 15:58:00,
2013-06-26 12:03:00,75.5,71.7,29.93,South,181,0.0,0.0,88,0.02,,SKC,0.02,VWS V13.01,2013-06-26 16:03:00,
2013-06-26 12:08:00,75.5,71.7,29.93,South,181,0.0,0.0,88,0.00,,SKC,0.02,VWS V13.01,2013-06-26 16:08:00,
2013-06-26 12:13:00,75.0,71.2,29.93,South,181,0.0,0.0,88,0.00,,SKC,0.02,VWS V13.01,2013-06-26 16:13:00,
2013-06-26 12:18:00,74.4,70.6,29.94,South,181,0.0,0.0,88,0.02,,SKC,0.04,VWS V13.01,2013-06-26 16:18:00,
2013-06-26 12:23:00,73.9,70.1,29.94,South,181,0.0,0.0,88,0.08,,SKC,0.10,VWS V13.01,2013-06-26 16:23:00,
2013-06-26 12:28:00,72.6,68.8,29.94,WSW,248,0.0,0.0,88,0.20,,SKC,0.22,VWS V13.01,2013-06-26 16:28:00,
2013-06-26 12:33:00,72.1,68.7,29.94,East,91,0.0,0.0,89,0.30,,SKC,0.32,VWS V13.01,2013-06-26 16:33:00,
2013-06-26 12:38:00,71.4,68.0,29.95,SSE,158,0.0,0.0,89,0.39,,SKC,0.41,VWS V13.01,2013-06-26 16:38:00,
2013-06-26 12:43:00,70.8,67.7,29.94,NW,316,0.0,0.0,90,0.43,,SKC,0.44,VWS V13.01,2013-06-26 16:43:00,
2013-06-26 12:48:00,70.3,67.2,29.94,SSE,158,0.0,0.0,90,0.43,,SKC,0.44,VWS V13.01,2013-06-26 16:48:00,
2013-06-26 12:53:00,70.1,67.0,29.94,SE,136,0.4,0.4,90,0.43,,SKC,0.44,VWS V13.01,2013-06-26 16:53:00,
2013-06-26 12:58:00,69.6,66.5,29.94,East,91,0.0,0.0,90,0.43,,SKC,0.44,VWS V13.01,2013-06-26 16:58:00,
2013-06-26 13:03:00,69.6,66.5,29.93,SE,136,0.0,0.0,90,0.43,,SKC,0.44,VWS V13.01,2013-06-26 17:03:00,
2013-06-26 13:08:00,69.6,66.9,29.93,SSE,158,0.0,0.0,91,0.43,,SKC,0.44,VWS V13.01,2013-06-26 17:08:00,
2013-06-26 13:13:00,69.6,66.5,29.93,South,181,1.5,2.0,90,0.43,,SKC,0.44,VWS V13.01,2013-06-26 17:13:00,
2013-06-26 13:18:00,69.6,66.5,29.93,SE,136,1.1,1.1,90,0.39,,SKC,0.44,VWS V13.01,2013-06-26 17:18:00,
2013-06-26 13:23:00,69.9,66.8,29.94,South,181,1.5,1.5,90,0.32,,SKC,0.44,VWS V13.01,2013-06-26 17:23:00,
2013-06-26 13:28:00,70.1,67.0,29.94,SSE,158,0.0,3.8,90,0.16,,SKC,0.44,VWS V13.01,2013-06-26 17:28:00,
2013-06-26 13:33:00,70.3,67.2,29.93,SE,136,0.6,0.6,90,0.06,,SKC,0.44,VWS V13.01,2013-06-26 17:33:00,
2013-06-26 13:38:00,70.3,67.2,29.93,ESE,114,1.5,1.5,90,0.02,,SKC,0.44,VWS V13.01,2013-06-26 17:38:00,
2013-06-26 13:43:00,70.3,67.2,29.93,ESE,114,1.5,2.4,90,0.00,,SKC,0.44,VWS V13.01,2013-06-26 17:43:00,
2013-06-26 13:48:00,70.3,67.2,29.94,SE,136,0.0,0.0,90,0.00,,SKC,0.44,VWS V13.01,2013-06-26 17:48:00,
2013-06-26 13:53:00,70.1,67.0,29.94,SSE,158,0.8,0.8,90,0.00,,SKC,0.44,VWS V13.01,2013-06-26 17:53:00,
2013-06-26 13:58:00,70.3,66.9,29.94,SE,136,0.4,0.4,89,0.00,,SKC,0.44,VWS V13.01,2013-06-26 17:58:00,
2013-06-26 14:03:00,70.3,66.9,29.93,South,181,0.0,0.0,89,0.00,,SKC,0.44,VWS V13.01,2013-06-26 18:03:00,
2013-06-26 14:08:00,70.5,67.1,29.93,South,181,1.5,1.5,89,0.00,,SKC,0.44,VWS V13.01,2013-06-26 18:08:00,
2013-06-26 14:13:00,70.8,67.4,29.93,South,181,1.5,1.5,89,0.00,,SKC,0.44,VWS V13.01,2013-06-26 18:13:00,
2013-06-26 14:18:00,71.2,67.8,29.93,SE,136,2.0,2.0,89,0.00,,SKC,0.44,VWS V13.01,2013-06-26 18:18:00,
2013-06-26 14:23:00,71.2,67.8,29.93,ESE,114,0.0,0.0,89,0.00,,SKC,0.44,VWS V13.01,2013-06-26 18:23:00,
2013-06-26 14:28:00,71.7,68.3,29.93,South,181,1.7,1.7,89,0.00,,SKC,0.44,VWS V13.01,2013-06-26 18:28:00,
2013-06-26 14:33:00,72.1,68.7,29.93,SW,226,0.0,0.0,89,0.00,,SKC,0.44,VWS V13.01,2013-06-26 18:33:00,
2013-06-26 14:38:00,72.3,68.9,29.93,WNW,294,0.0,0.0,89,0.00,,SKC,0.44,VWS V13.01,2013-06-26 18:38:00,
2013-06-26 14:43:00,73.2,69.8,29.93,SW,226,0.0,0.0,89,0.00,,SKC,0.44,VWS V13.01,2013-06-26 18:43:00,
2013-06-26 14:48:00,73.9,70.5,29.93,South,181,0.0,0.0,89,0.00,,SKC,0.44,VWS V13.01,2013-06-26 18:48:00,
2013-06-26 14:53:00,74.4,70.6,29.93,South,181,0.0,0.0,88,0.00,,SKC,0.44,VWS V13.01,2013-06-26 18:53:00,
2013-06-26 14:58:00,75.3,71.2,29.93,South,181,0.0,0.0,87,0.00,,SKC,0.44,VWS V13.01,2013-06-26 18:58:00,
2013-06-26 15:03:00,75.5,71.4,29.93,SSW,204,0.6,0.6,87,0.00,,SKC,0.44,VWS V13.01,2013-06-26 19:03:00,
2013-06-26 15:08:00,75.9,71.4,29.92,South,181,1.7,1.7,86,0.00,,SKC,0.44,VWS V13.01,2013-06-26 19:08:00,
2013-06-26 15:13:00,75.9,71.4,29.92,South,181,2.2,2.4,86,0.00,,SKC,0.44,VWS V13.01,2013-06-26 19:13:00,
2013-06-26 15:18:00,75.7,70.9,29.92,SE,136,1.1,1.1,85,0.00,,SKC,0.44,VWS V13.01,2013-06-26 19:18:00,
2013-06-26 15:23:00,75.7,70.9,29.92,SSE,158,0.0,0.0,85,0.00,,SKC,0.44,VWS V13.01,2013-06-26 19:23:00,
2013-06-26 15:28:00,75.9,71.1,29.93,South,181,2.2,2.2,85,0.00,,SKC,0.44,VWS V13.01,2013-06-26 19:28:00,
2013-06-26 15:33:00,75.9,70.7,29.93,SSW,204,0.0,0.0,84,0.00,,SKC,0.44,VWS V13.01,2013-06-26 19:33:00,
2013-06-26 15:38:00,75.9,70.7,29.93,SSW,204,0.8,0.8,84,0.00,,SKC,0.44,VWS V13.01,2013-06-26 19:38:00,
2013-06-26 15:43:00,75.9,70.4,29.92,South,181,0.0,1.3,83,0.00,,SKC,0.44,VWS V13.01,2013-06-26 19:43:00,
2013-06-26 15:48:00,75.9,70.4,29.93,South,181,0.0,0.0,83,0.00,,SKC,0.44,VWS V13.01,2013-06-26 19:48:00,
2013-06-26 15:53:00,75.9,70.0,29.92,NNW,338,0.4,0.4,82,0.00,,SKC,0.44,VWS V13.01,2013-06-26 19:53:00,
2013-06-26 15:58:00,75.9,70.0,29.93,SSE,158,1.3,1.3,82,0.00,,SKC,0.44,VWS V13.01,2013-06-26 19:58:00,
2013-06-26 16:03:00,76.1,70.2,29.93,SSE,158,0.0,0.0,82,0.00,,SKC,0.44,VWS V13.01,2013-06-26 20:03:00,
2013-06-26 16:08:00,76.1,70.2,29.92,SSW,204,1.7,1.7,82,0.00,,SKC,0.44,VWS V13.01,2013-06-26 20:08:00,
2013-06-26 16:13:00,76.4,70.1,29.92,NNE,24,0.6,0.6,81,0.00,,SKC,0.44,VWS V13.01,2013-06-26 20:13:00,
2013-06-26 16:18:00,76.8,70.5,29.92,SSE,158,2.2,2.2,81,0.00,,SKC,0.44,VWS V13.01,2013-06-26 20:18:00,
2013-06-26 16:23:00,77.1,70.5,29.92,SSW,204,0.6,0.6,80,0.00,,SKC,0.44,VWS V13.01,2013-06-26 20:23:00,
2013-06-26 16:28:00,77.3,70.7,29.92,South,181,0.0,1.1,80,0.00,,SKC,0.44,VWS V13.01,2013-06-26 20:28:00,
2013-06-26 16:33:00,77.5,70.8,29.92,SSE,158,2.0,2.0,80,0.00,,SKC,0.44,VWS V13.01,2013-06-26 20:33:00,
2013-06-26 16:38:00,77.5,70.5,29.91,South,181,0.6,0.6,79,0.00,,SKC,0.44,VWS V13.01,2013-06-26 20:38:00,
2013-06-26 16:43:00,77.5,70.8,29.91,SSW,204,0.0,2.2,80,0.00,,SKC,0.44,VWS V13.01,2013-06-26 20:43:00,
2013-06-26 16:48:00,77.5,70.8,29.91,South,181,1.7,1.7,80,0.00,,SKC,0.44,VWS V13.01,2013-06-26 20:48:00,
2013-06-26 16:53:00,77.7,71.0,29.91,SSE,158,2.0,2.0,80,0.00,,SKC,0.44,VWS V13.01,2013-06-26 20:53:00,
2013-06-26 16:58:00,78.0,71.3,29.91,SSE,158,4.0,4.0,80,0.00,,SKC,0.44,VWS V13.01,2013-06-26 20:58:00,
2013-06-26 17:03:00,78.0,71.0,29.91,SSW,204,0.8,0.8,79,0.00,,SKC,0.44,VWS V13.01,2013-06-26 21:03:00,
2013-06-26 17:08:00,78.4,71.3,29.91,South,181,0.0,1.5,79,0.00,,SKC,0.44,VWS V13.01,2013-06-26 21:08:00,
2013-06-26 17:13:00,78.6,71.6,29.91,SSE,158,0.0,0.0,79,0.00,,SKC,0.44,VWS V13.01,2013-06-26 21:13:00,
2013-06-26 17:18:00,78.8,71.7,29.91,SW,226,0.6,0.6,79,0.00,,SKC,0.44,VWS V13.01,2013-06-26 21:18:00,
2013-06-26 17:23:00,78.9,71.8,29.91,South,181,0.8,0.8,79,0.00,,SKC,0.44,VWS V13.01,2013-06-26 21:23:00,
2013-06-26 17:28:00,79.1,71.7,29.91,SSE,158,4.2,4.2,78,0.00,,SKC,0.44,VWS V13.01,2013-06-26 21:28:00,
2013-06-26 17:33:00,79.1,71.3,29.91,SW,226,0.0,0.0,77,0.00,,SKC,0.44,VWS V13.01,2013-06-26 21:33:00,
2013-06-26 17:38:00,78.9,71.1,29.90,North,1,0.8,0.8,77,0.00,,SKC,0.44,VWS V13.01,2013-06-26 21:38:00,
2013-06-26 17:43:00,78.9,71.1,29.90,SSE,158,0.0,0.0,77,0.00,,SKC,0.44,VWS V13.01,2013-06-26 21:43:00,
2013-06-26 17:48:00,78.9,71.1,29.90,South,181,1.5,1.5,77,0.00,,SKC,0.44,VWS V13.01,2013-06-26 21:48:00,
2013-06-26 17:53:00,78.9,71.1,29.91,South,181,0.0,0.0,77,0.00,,SKC,0.44,VWS V13.01,2013-06-26 21:53:00,
2013-06-26 17:58:00,79.5,71.7,29.91,South,181,0.0,0.4,77,0.00,,SKC,0.44,VWS V13.01,2013-06-26 21:58:00,
2013-06-26 18:03:00,79.8,71.9,29.91,SSE,158,1.3,1.3,77,0.00,,SKC,0.44,VWS V13.01,2013-06-26 22:03:00,
2013-06-26 18:08:00,80.4,72.2,29.91,SW,226,0.0,1.3,76,0.00,,SKC,0.44,VWS V13.01,2013-06-26 22:08:00,
2013-06-26 18:13:00,80.4,71.8,29.91,SSE,158,1.7,1.7,75,0.00,,SKC,0.44,VWS V13.01,2013-06-26 22:13:00,
2013-06-26 18:18:00,80.6,71.9,29.91,WSW,248,0.0,0.0,75,0.00,,SKC,0.44,VWS V13.01,2013-06-26 22:18:00,
2013-06-26 18:23:00,80.7,72.0,29.90,South,181,4.2,4.2,75,0.00,,SKC,0.44,VWS V13.01,2013-06-26 22:23:00,
2013-06-26 18:28:00,81.3,72.2,29.91,South,181,0.0,0.0,74,0.00,,SKC,0.44,VWS V13.01,2013-06-26 22:28:00,
2013-06-26 18:33:00,81.6,72.5,29.91,South,181,0.6,0.6,74,0.00,,SKC,0.44,VWS V13.01,2013-06-26 22:33:00,
2013-06-26 18:38:00,82.0,72.5,29.91,SW,226,0.0,0.0,73,0.00,,SKC,0.44,VWS V13.01,2013-06-26 22:38:00,
2013-06-26 18:43:00,82.2,72.3,29.92,SSW,204,0.0,0.0,72,0.00,,SKC,0.44,VWS V13.01,2013-06-26 22:43:00,
2013-06-26 18:48:00,82.0,71.7,29.92,SW,226,0.0,0.0,71,0.00,,SKC,0.44,VWS V13.01,2013-06-26 22:48:00,
2013-06-26 18:53:00,81.1,71.2,29.92,South,181,0.6,0.6,72,0.00,,SKC,0.44,VWS V13.01,2013-06-26 22:53:00,
2013-06-26 18:58:00,80.9,71.0,29.92,South,181,0.0,0.0,72,0.00,,SKC,0.44,VWS V13.01,2013-06-26 22:58:00,
2013-06-26 19:03:00,80.7,71.2,29.92,SSE,158,0.2,0.2,73,0.00,,SKC,0.44,VWS V13.01,2013-06-26 23:03:00,
2013-06-26 19:08:00,80.2,70.8,29.92,South,181,0.0,0.0,73,0.00,,SKC,0.44,VWS V13.01,2013-06-26 23:08:00,
2013-06-26 19:13:00,80.2,70.8,29.92,South,181,1.1,1.1,73,0.00,,SKC,0.44,VWS V13.01,2013-06-26 23:13:00,
2013-06-26 19:18:00,80.2,70.8,29.91,South,181,0.6,0.6,73,0.00,,SKC,0.44,VWS V13.01,2013-06-26 23:18:00,
2013-06-26 19:23:00,80.4,71.0,29.91,SSW,204,0.0,0.0,73,0.00,,SKC,0.44,VWS V13.01,2013-06-26 23:23:00,
2013-06-26 19:28:00,80.2,70.8,29.91,SSE,158,0.0,0.0,73,0.00,,SKC,0.44,VWS V13.01,2013-06-26 23:28:00,
2013-06-26 19:33:00,79.8,70.4,29.91,South,181,0.6,0.6,73,0.00,,SKC,0.44,VWS V13.01,2013-06-26 23:33:00,
2013-06-26 19:38:00,79.1,69.7,29.91,South,181,0.2,0.2,73,0.00,,SKC,0.44,VWS V13.01,2013-06-26 23:38:00,
2013-06-26 19:43:00,78.6,69.6,29.91,South,181,0.0,0.0,74,0.00,,SKC,0.44,VWS V13.01,2013-06-26 23:43:00,
2013-06-26 19:48:00,78.0,69.1,29.91,SE,136,0.0,0.0,74,0.00,,SKC,0.44,VWS V13.01,2013-06-26 23:48:00,
2013-06-26 19:53:00,77.3,68.8,29.91,SE,136,0.0,0.0,75,0.00,,SKC,0.44,VWS V13.01,2013-06-26 23:53:00,
2013-06-26 19:58:00,76.8,68.3,29.91,ESE,114,0.0,0.0,75,0.00,,SKC,0.44,VWS V13.01,2013-06-26 23:58:00,
2013-06-26 20:03:00,76.6,68.5,29.91,SE,136,0.0,0.0,76,0.00,,SKC,0.44,VWS V13.01,2013-06-27 00:03:00,
2013-06-26 20:08:00,75.9,67.8,29.91,SSE,158,0.0,0.0,76,0.00,,SKC,0.44,VWS V13.01,2013-06-27 00:08:00,
2013-06-26 20:13:00,75.3,67.6,29.90,SSE,158,0.4,0.4,77,0.00,,SKC,0.44,VWS V13.01,2013-06-27 00:13:00,
2013-06-26 20:18:00,75.0,67.7,29.90,SSW,204,0.0,0.0,78,0.00,,SKC,0.44,VWS V13.01,2013-06-27 00:18:00,
2013-06-26 20:23:00,74.4,67.1,29.91,South,181,0.0,0.0,78,0.00,,SKC,0.44,VWS V13.01,2013-06-27 00:23:00,
2013-06-26 20:28:00,74.3,67.0,29.91,WSW,248,0.0,0.0,78,0.00,,SKC,0.44,VWS V13.01,2013-06-27 00:28:00,
2013-06-26 20:33:00,74.1,66.8,29.91,South,181,0.0,0.0,78,0.00,,SKC,0.44,VWS V13.01,2013-06-27 00:33:00,
2013-06-26 20:38:00,73.7,66.8,29.91,South,181,0.0,0.0,79,0.00,,SKC,0.44,VWS V13.01,2013-06-27 00:38:00,
2013-06-26 20:43:00,73.4,66.5,29.91,South,181,0.0,0.0,79,0.00,,SKC,0.44,VWS V13.01,2013-06-27 00:43:00,
2013-06-26 20:48:00,73.2,66.7,29.91,South,181,3.1,3.1,80,0.00,,SKC,0.44,VWS V13.01,2013-06-27 00:48:00,
2013-06-26 20:53:00,73.2,66.7,29.92,South,181,0.0,0.0,80,0.00,,SKC,0.44,VWS V13.01,2013-06-27 00:53:00,
2013-06-26 20:58:00,73.0,66.5,29.92,SE,136,0.0,0.0,80,0.00,,SKC,0.44,VWS V13.01,2013-06-27 00:58:00,
2013-06-26 21:03:00,73.0,66.5,29.92,SSE,158,0.0,0.0,80,0.00,,SKC,0.44,VWS V13.01,2013-06-27 01:03:00,
2013-06-26 21:08:00,73.0,66.5,29.93,SSE,158,0.0,0.0,80,0.00,,SKC,0.44,VWS V13.01,2013-06-27 01:08:00,
2013-06-26 21:13:00,73.0,66.5,29.93,SSE,158,0.0,0.0,80,0.00,,SKC,0.44,VWS V13.01,2013-06-27 01:13:00,
2013-06-26 21:18:00,73.0,66.8,29.93,SSW,204,0.0,0.0,81,0.00,,SKC,0.44,VWS V13.01,2013-06-27 01:18:00,
2013-06-26 21:23:00,72.8,66.6,29.93,South,181,0.4,0.4,81,0.00,,SKC,0.44,VWS V13.01,2013-06-27 01:23:00,
2013-06-26 21:28:00,72.8,66.6,29.93,South,181,0.0,0.0,81,0.00,,SKC,0.44,VWS V13.01,2013-06-27 01:28:00,
2013-06-26 21:33:00,72.6,66.4,29.92,South,181,1.3,1.3,81,0.00,,SKC,0.44,VWS V13.01,2013-06-27 01:33:00,
2013-06-26 21:38:00,72.3,66.5,29.92,South,181,0.0,0.0,82,0.00,,SKC,0.44,VWS V13.01,2013-06-27 01:38:00,
2013-06-26 21:43:00,72.1,66.3,29.92,South,181,0.8,0.8,82,0.00,,SKC,0.44,VWS V13.01,2013-06-27 01:43:00,
2013-06-26 21:48:00,71.9,66.1,29.92,SSE,158,0.0,0.0,82,0.00,,SKC,0.44,VWS V13.01,2013-06-27 01:48:00,
2013-06-26 21:53:00,71.6,66.2,29.92,SSE,158,0.0,0.0,83,0.00,,SKC,0.44,VWS V13.01,2013-06-27 01:53:00,
2013-06-26 21:58:00,71.4,66.0,29.92,South,181,0.0,0.0,83,0.00,,SKC,0.44,VWS V13.01,2013-06-27 01:58:00,
2013-06-26 22:03:00,71.2,65.8,29.93,West,271,0.0,0.0,83,0.00,,SKC,0.44,VWS V13.01,2013-06-27 02:03:00,
2013-06-26 22:08:00,71.2,65.8,29.93,SE,136,0.0,0.0,83,0.00,,SKC,0.44,VWS V13.01,2013-06-27 02:08:00,
2013-06-26 22:13:00,71.2,65.8,29.93,SE,136,0.0,0.0,83,0.00,,SKC,0.44,VWS V13.01,2013-06-27 02:13:00,
2013-06-26 22:18:00,70.8,65.4,29.93,SE,136,0.0,0.0,83,0.00,,SKC,0.44,VWS V13.01,2013-06-27 02:18:00,
2013-06-26 22:23:00,70.7,65.3,29.93,East,91,0.0,0.0,83,0.00,,SKC,0.44,VWS V13.01,2013-06-27 02:23:00,
2013-06-26 22:28:00,70.5,65.4,29.93,East,91,0.0,0.0,84,0.00,,SKC,0.44,VWS V13.01,2013-06-27 02:28:00,
2013-06-26 22:33:00,70.3,65.2,29.92,ESE,114,0.0,0.0,84,0.00,,SKC,0.44,VWS V13.01,2013-06-27 02:33:00,
2013-06-26 22:38:00,70.1,65.1,29.92,SE,136,0.0,0.0,84,0.00,,SKC,0.44,VWS V13.01,2013-06-27 02:38:00,
2013-06-26 22:43:00,69.9,64.8,29.92,ENE,68,0.0,0.0,84,0.00,,SKC,0.44,VWS V13.01,2013-06-27 02:43:00,
2013-06-26 22:48:00,69.9,65.2,29.91,ESE,114,0.0,0.0,85,0.00,,SKC,0.44,VWS V13.01,2013-06-27 02:48:00,
2013-06-26 22:53:00,69.9,65.2,29.92,NNE,24,0.0,0.0,85,0.00,,SKC,0.44,VWS V13.01,2013-06-27 02:53:00,
2013-06-26 22:58:00,69.8,65.1,29.91,NNE,24,0.0,0.0,85,0.00,,SKC,0.44,VWS V13.01,2013-06-27 02:58:00,
2013-06-26 23:03:00,69.6,64.9,29.91,NNE,24,0.0,0.0,85,0.00,,SKC,0.44,VWS V13.01,2013-06-27 03:03:00,
2013-06-26 23:08:00,69.6,64.9,29.91,North,1,0.0,0.0,85,0.00,,SKC,0.44,VWS V13.01,2013-06-27 03:08:00,
2013-06-26 23:13:00,69.4,64.7,29.91,North,1,0.0,0.0,85,0.00,,SKC,0.44,VWS V13.01,2013-06-27 03:13:00,
2013-06-26 23:18:00,69.2,64.5,29.92,NNE,24,0.0,0.0,85,0.00,,SKC,0.44,VWS V13.01,2013-06-27 03:18:00,
2013-06-26 23:23:00,69.0,64.6,29.92,NNE,24,0.0,0.0,86,0.00,,SKC,0.44,VWS V13.01,2013-06-27 03:23:00,
2013-06-26 23:28:00,68.9,64.6,29.92,SE,136,0.0,0.0,86,0.00,,SKC,0.44,VWS V13.01,2013-06-27 03:28:00,
2013-06-26 23:33:00,68.7,64.3,29.92,SSE,158,0.0,0.0,86,0.00,,SKC,0.44,VWS V13.01,2013-06-27 03:33:00,
2013-06-26 23:38:00,68.7,64.3,29.92,East,91,0.0,0.0,86,0.00,,SKC,0.44,VWS V13.01,2013-06-27 03:38:00,
2013-06-26 23:43:00,68.7,64.3,29.93,WSW,248,0.0,0.0,86,0.00,,SKC,0.44,VWS V13.01,2013-06-27 03:43:00,
2013-06-26 23:48:00,-12.9,-15.9,29.92,WSW,248,0.0,0.0,86,0.00,,SKC,0.44,VWS V13.01,2013-06-27 03:48:00,
2013-06-26 23:53:00,68.9,64.6,29.92,SSW,204,0.0,0.0,86,0.00,,SKC,0.44,VWS V13.01,2013-06-27 03:53:00,
2013-06-26 23:58:00,69.0,65.0,29.92,South,181,0.0,0.0,87,0.00,,SKC,0.44,VWS V13.01,2013-06-27 03:58:00,